Total_Precipitation_Accumulation
0.36 0.39 0.52 0.37 0.31 0.34 0.39 0.46 0.52 0.48 0.47 0.48 0.42 0.37 0.36 0.35 0.30 0.29 0.31 0.36 0.42 0.48 0.52 0.61 0.72 0.79 0.85 0.80 0.73 0.66 0.68 0.74 0.88 0.89 0.89 0.90 1.02 1.25 1.41 1.41 1.43 0.92 0.78
0.20 0.25 0.38 0.31 0.28 0.31 0.34 0.42 0.47 0.44 0.41 0.41 0.40 0.37 0.37 0.36 0.35 0.34 0.37 0.43 0.47 0.48 0.52 0.60 0.65 0.65 0.63 0.62 0.59 0.55 0.63 0.82 1.05 1.16 1.21 1.11 1.23 1.41 1.44 1.37 1.48 0.84 0.79
0.12 0.14 0.20 0.24 0.23 0.25 0.27 0.34 0.39 0.37 0.33 0.32 0.33 0.34 0.38 0.41 0.40 0.39 0.41 0.46 0.48 0.51 0.49 0.51 0.51 0.51 0.51 0.54 0.56 0.61 0.69 0.98 1.35 1.59 1.77 1.41 0.98 1.34 1.40 1.29 1.11 0.73 0.80
0.08 0.10 0.12 0.19 0.19 0.20 0.23 0.29 0.37 0.36 0.32 0.31 0.32 0.33 0.35 0.41 0.48 0.49 0.49 0.54 0.54 0.54 0.49 0.46 0.43 0.42 0.45 0.50 0.57 0.68 0.82 1.04 1.37 1.85 2.07 1.28 0.70 0.88 1.02 0.94 0.88 0.76 0.75
0.06 0.08 0.15 0.18 0.16 0.16 0.19 0.26 0.35 0.32 0.29 0.28 0.29 0.34 0.37 0.42 0.48 0.53 0.55 0.55 0.53 0.52 0.47 0.41 0.35 0.34 0.38 0.44 0.56 0.69 0.83 1.05 1.36 1.61 1.36 1.26 1.06 0.91 0.82 0.76 0.78 0.73 0.63
0.07 0.08 0.12 0.17 0.16 0.14 0.16 0.22 0.31 0.31 0.28 0.30 0.33 0.37 0.40 0.42 0.46 0.48 0.46 0.47 0.49 0.48 0.46 0.41 0.32 0.36 0.43 0.48 0.60 0.70 0.81 1.05 1.25 0.98 0.85 1.03 0.89 0.90 0.87 0.89 0.91 0.79 0.64
0.08 0.08 0.10 0.16 0.17 0.16 0.17 0.22 0.26 0.31 0.30 0.30 0.32 0.33 0.38 0.41 0.46 0.45 0.40 0.41 0.46 0.46 0.42 0.37 0.34 0.40 0.45 0.50 0.58 0.67 0.89 1.09 1.05 0.76 0.79 1.02 0.76 0.69 0.88 1.04 1.15 0.97 0.78
0.13 0.09 0.12 0.19 0.22 0.22 0.22 0.26 0.27 0.28 0.30 0.34 0.32 0.29 0.31 0.35 0.38 0.41 0.41 0.41 0.43 0.46 0.40 0.35 0.40 0.44 0.48 0.52 0.55 0.61 0.82 0.93 0.79 0.69 0.71 0.74 0.51 0.61 0.86 1.08 1.24 1.15 0.99
0.24 0.22 0.19 0.23 0.27 0.30 0.32 0.31 0.33 0.32 0.32 0.35 0.35 0.33 0.33 0.33 0.34 0.37 0.46 0.47 0.44 0.44 0.43 0.36 0.37 0.40 0.41 0.43 0.51 0.61 0.78 0.94 0.84 0.74 0.60 0.55 0.48 0.64 0.92 1.08 1.16 1.20 1.12
0.58 0.44 0.30 0.29 0.34 0.33 0.31 0.37 0.42 0.38 0.37 0.37 0.35 0.35 0.36 0.37 0.38 0.43 0.48 0.53 0.55 0.53 0.50 0.43 0.37 0.38 0.44 0.49 0.58 0.74 0.89 0.85 0.77 0.82 0.80 0.59 0.58 0.74 0.94 1.05 1.22 1.28 1.19
1.08 0.90 0.56 0.44 0.44 0.47 0.40 0.40 0.53 0.51 0.44 0.44 0.47 0.48 0.64 0.79 0.70 0.80 0.74 0.79 0.78 0.73 0.69 0.64 0.61 0.58 0.55 0.51 0.66 0.89 0.87 0.81 1.04 1.09 0.79 0.63 0.73 0.97 1.14 1.23 1.30 1.30 1.27
1.27 1.16 0.85 0.74 0.57 0.51 0.47 0.58 0.80 0.75 0.74 0.78 0.88 0.86 1.13 1.33 1.23 0.95 1.04 1.27 1.26 1.22 1.11 1.10 1.10 0.92 0.74 0.70 1.18 1.50 1.13 1.14 1.20 0.93 0.77 0.85 1.11 1.40 1.64 1.55 1.40 1.27 1.18
1.42 1.27 1.03 0.98 0.87 0.72 0.84 0.77 0.90 1.07 1.20 1.08 1.02 1.09 1.42 1.34 1.11 1.10 1.20 1.40 1.61 1.54 1.44 1.60 1.69 1.40 1.32 1.56 1.88 1.76 1.37 1.40 1.36 1.18 0.97 1.12 1.48 1.89 2.13 1.99 1.70 1.43 1.24
1.73 1.55 1.33 1.19 1.07 1.03 1.03 0.96 0.98 1.03 1.19 1.20 1.29 1.28 1.49 1.69 1.62 1.61 1.71 1.71 1.82 1.95 2.22 2.15 2.20 2.01 1.90 1.83 1.97 1.78 1.59 1.61 1.53 1.73 1.76 1.70 1.76 2.02 2.44 2.36 2.01 1.70 1.52
2.23 2.10 1.89 1.57 1.53 1.47 1.49 1.50 1.25 1.26 1.34 1.51 1.64 1.67 1.66 1.84 1.87 1.95 1.96 1.99 1.85 1.95 2.14 2.39 2.30 2.39 2.44 2.22 1.94 1.81 1.88 1.88 1.95 1.95 1.90 2.09 2.00 1.98 2.43 2.54 2.26 1.98 1.83
2.91 2.93 2.71 2.36 2.30 2.19 1.97 1.86 1.77 1.63 1.75 1.81 1.90 1.92 1.92 2.14 2.29 2.22 2.05 2.07 1.96 1.99 2.08 2.27 2.36 2.70 2.64 2.55 2.13 1.93 1.96 2.04 2.05 2.14 2.07 2.37 2.23 1.94 2.16 2.41 2.50 2.35 2.12
3.21 3.38 3.38 3.21 3.17 3.01 2.71 2.38 2.16 2.10 2.02 2.19 2.28 2.23 2.28 2.33 2.48 2.40 2.27 2.09 2.08 2.11 2.24 2.29 2.42 2.72 2.69 2.56 2.33 2.15 2.04 1.89 1.79 1.85 1.92 2.11 2.04 1.90 1.96 2.15 2.41 2.49 2.37
3.49 3.69 3.90 3.85 3.84 3.60 3.31 2.98 2.72 2.51 2.43 2.42 2.41 2.43 2.35 2.47 2.52 2.55 2.33 2.06 2.19 2.15 2.26 2.51 2.63 2.79 2.93 2.91 2.64 2.35 2.13 1.98 1.80 1.76 1.68 1.67 1.84 1.54 1.75 1.98 2.17 2.29 2.56
3.86 4.23 4.58 4.64 4.55 4.17 3.74 3.47 3.35 3.11 2.87 2.68 2.65 2.54 2.46 2.49 2.41 2.51 2.32 2.21 2.29 2.44 2.45 2.29 2.78 3.02 3.06 3.05 2.55 2.39 2.02 1.87 1.71 1.54 1.53 1.39 1.46 1.46 1.51 1.61 1.79 1.92 2.38
4.36 4.94 4.96 4.90 5.14 4.90 4.52 4.25 3.99 3.57 3.23 2.94 2.79 2.65 2.45 2.35 2.28 2.51 2.23 2.20 2.38 2.57 2.58 2.64 2.99 3.09 2.95 3.07 2.60 2.23 1.85 1.51 1.42 1.37 1.25 1.19 1.15 1.07 1.16 1.44 1.79 1.64 2.03
4.19 4.74 5.26 5.31 5.20 4.96 4.62 4.14 3.77 3.39 3.18 2.93 2.69 2.49 2.42 2.37 2.43 2.76 2.44 2.58 2.50 2.49 2.52 2.69 2.89 2.84 2.69 3.04 3.07 2.38 1.63 1.23 1.18 1.02 0.99 0.99 0.91 0.95 1.17 1.56 1.83 1.86 1.65
3.60 4.06 4.45 4.68 4.35 3.91 3.69 3.62 3.48 3.44 3.06 2.91 2.86 2.83 2.58 2.58 2.54 2.52 2.62 2.53 2.54 2.57 2.39 2.46 2.74 2.60 2.25 2.63 2.91 2.86 2.13 1.62 1.20 0.76 0.83 0.85 0.87 1.05 1.12 1.19 1.50 1.82 1.74
3.05 3.22 3.37 3.50 3.52 3.47 3.53 3.65 3.69 3.77 3.44 3.30 3.22 3.09 2.74 2.65 2.57 2.58 2.45 2.35 2.41 2.33 2.24 2.22 2.40 2.49 2.29 2.27 2.60 2.97 2.44 1.85 1.42 0.93 0.87 0.85 1.05 1.31 1.31 1.32 1.43 1.63 1.70
2.40 2.66 3.08 3.21 3.32 3.50 3.73 3.73 3.71 3.58 3.44 3.43 3.52 3.49 3.36 3.10 2.82 2.59 2.40 2.27 2.16 2.05 2.10 1.86 2.09 2.26 2.33 2.02 2.15 2.25 2.15 2.08 2.00 1.45 1.07 0.98 1.22 1.35 1.37 1.37 1.43 1.58 1.66
2.03 2.31 2.78 3.26 3.49 3.66 3.86 3.93 4.11 3.94 3.73 3.59 3.62 3.66 3.45 3.22 2.92 2.60 2.47 2.35 2.21 2.05 1.95 1.88 2.03 1.97 1.97 1.90 1.98 2.00 2.01 2.00 1.91 1.82 1.49 1.35 1.27 1.04 1.05 1.15 1.36 1.66 1.74
2.16 2.39 2.70 3.13 3.46 3.65 3.75 3.79 3.81 3.76 3.69 3.47 3.35 3.10 2.77 2.66 2.53 2.34 2.27 2.18 2.04 2.02 2.01 1.95 1.91 1.86 1.88 1.95 1.93 1.88 1.94 1.96 1.95 2.04 1.78 1.56 1.40 1.16 1.11 1.15 1.28 1.47 1.55